User: anonymous   Login
Location: Unspecified
(0.0000°N, 0.0000°E)
Time: 10:23:05
(UTC+00:00)
Language:

AO-91 - Orbit

View from above orbital plane
View from above orbital plane
View from above satellite
View from above satellite

Ground track
Ground track

The orbit data is extracted from the following two-line orbital elements,

1 43017U 17073E   23331.65842509  .00011168  00000-0  74670-3 0  9998
2 43017  97.6044 209.6029 0222360 248.2356 109.5066 14.89080635325483
Epoch (UTC): 27 November 2023 15:48:07
Eccentricity: 0.0222360
inclination: 97.6044°
perigee height: 445 km
apogee height: 756 km
right ascension of ascending node: 209.6029°
argument of perigee: 248.2356°
revolutions per day: 14.89080635
mean anomaly at epoch: 109.5066°
orbit number at epoch: 32548

The dashed part of the orbit path shows where the satellite is in the earth's shadow,  

DLR